Location: Newark
(5.0949°S, 42.8042°W)
Time: 01:58:17
(UTC+00:00)

Hubble Space Telescope - Pass Details

Date: 30 September 2019
Orbit: 536 x 540 km, 28.5° (Epoch: 20 October)

Event Time Altitude Azimuth Distance (km) Brightness Sun altitude
Exits shadow 07:46:24 22° 278° (W) 1,202 1.9 -13.4°
Maximum altitude 07:48:50 53° 209° (SSW) 660 1.0 -12.8°
Drops below altitude 10° 07:52:52 10° 132° (SE) 1,783 4.2 -11.8°
Sets 07:55:11 0° 127° (SE) 2,676 5.4 -11.2°
